TimeMDT,TemperatureF,Dew PointF,Humidity,Sea Level PressureIn,VisibilityMPH,Wind Direction,Wind SpeedMPH,Gust SpeedMPH,PrecipitationIn,Events,Conditions,WindDirDegrees,DateUTC
12:53 AM,37.0,10.0,33,29.97,10.0,Calm,Calm,-,N/A,,Clear,0,2013-04-05 06:53:00
1:53 AM,37.9,10.0,32,29.96,10.0,Calm,Calm,-,N/A,,Clear,0,2013-04-05 07:53:00
2:53 AM,35.1,10.9,37,29.95,10.0,Calm,Calm,-,N/A,,Clear,0,2013-04-05 08:53:00
3:53 AM,33.1,10.9,40,29.94,10.0,Calm,Calm,-,N/A,,Clear,0,2013-04-05 09:53:00
4:53 AM,34.0,10.9,38,29.94,10.0,Calm,Calm,-,N/A,,Clear,0,2013-04-05 10:53:00
5:53 AM,30.9,10.9,43,29.94,10.0,Calm,Calm,-,N/A,,Clear,0,2013-04-05 11:53:00
7:53 AM,37.0,12.9,37,29.99,10.0,Calm,Calm,-,N/A,,Clear,0,2013-04-05 13:53:00
8:53 AM,48.0,14.0,26,29.95,10.0,Calm,Calm,-,N/A,,Scattered Clouds,0,2013-04-05 14:53:00
9:53 AM,57.9,17.1,20,29.91,10.0,SSW,10.4,-,N/A,,Mostly Cloudy,200,2013-04-05 15:53:00
10:53 AM,60.1,14.0,16,29.92,10.0,WSW,18.4,23.0,N/A,,Mostly Cloudy,250,2013-04-05 16:53:00
11:53 AM,61.0,14.0,16,29.91,10.0,SW,10.4,23.0,N/A,,Overcast,230,2013-04-05 17:53:00
12:53 PM,64.0,15.1,15,29.88,10.0,SW,10.4,25.3,N/A,,Clear,230,2013-04-05 18:53:00
1:53 PM,66.0,16.0,15,29.84,10.0,WSW,20.7,29.9,N/A,,Partly Cloudy,250,2013-04-05 19:53:00
2:53 PM,66.9,17.1,15,29.81,10.0,SW,17.3,26.5,N/A,,Partly Cloudy,230,2013-04-05 20:53:00
3:53 PM,68.0,17.1,14,29.77,10.0,WSW,12.7,21.9,N/A,,Scattered Clouds,250,2013-04-05 21:53:00
4:53 PM,66.0,17.1,15,29.77,10.0,WSW,21.9,33.4,N/A,,Scattered Clouds,250,2013-04-05 22:53:00
5:53 PM,66.0,12.9,13,29.79,10.0,WSW,24.2,33.4,N/A,,Clear,250,2013-04-05 23:53:00
6:53 PM,63.0,12.0,14,29.81,10.0,WSW,18.4,26.5,N/A,,Clear,250,2013-04-06 00:53:00
7:53 PM,57.0,17.1,21,29.81,10.0,SW,6.9,-,N/A,,Clear,220,2013-04-06 01:53:00
8:53 PM,51.1,17.1,26,29.82,10.0,South,5.8,-,N/A,,Clear,190,2013-04-06 02:53:00
9:53 PM,52.0,19.0,27,29.80,10.0,South,6.9,-,N/A,,Clear,190,2013-04-06 03:53:00
10:53 PM,46.9,19.9,34,29.82,10.0,WSW,8.1,-,N/A,,Clear,240,2013-04-06 04:53:00
11:53 PM,46.0,21.0,37,29.83,10.0,WSW,8.1,-,N/A,,Clear,250,2013-04-06 05:53:00